BAW7GV EGLL-LSZH

Flight info

Callsign BAW7GV
Flight time 1h 9m
Altitude 31000
Route DET L6 DVR UL9 KONAN DCT KOK DCT SISGA DCT RITAX DCT KRH M150 LAMGO/N0450F270 T721 SUL/N0436F250 T721 RILAX
Aircraft A320/M-SDE3FGHIRWY/LB1

Departure

Time 2026-05-07 23:01
Airport London Heathrow Airport (EGLL)

Arrival

Time 2026-05-08 00:10
Airport Zürich Airport (LSZH)
Time Latitude Longitude Altitude Speed Heading
2026-05-07 22:56 51.47227 -0.48473 86 ft 0 kts 179°
2026-05-07 22:57 51.47226 -0.48473 86 ft 1 kts 179°
2026-05-07 22:58 51.47196 -0.48473 89 ft 6 kts 179°
2026-05-07 22:58 51.47146 -0.48472 86 ft 9 kts 179°
2026-05-07 22:58 51.47077 -0.48471 86 ft 11 kts 179°
2026-05-07 22:58 51.46992 -0.48470 89 ft 14 kts 179°
2026-05-07 22:59 51.46887 -0.48468 86 ft 16 kts 179°
2026-05-07 22:59 51.46766 -0.48464 86 ft 19 kts 179°
2026-05-07 22:59 51.46652 -0.48521 89 ft 17 kts 263°
2026-05-07 22:59 51.46651 -0.48713 86 ft 18 kts 258°
2026-05-07 23:00 51.46541 -0.48790 86 ft 19 kts 179°
2026-05-07 23:00 51.46478 -0.48630 86 ft 21 kts 89°
2026-05-07 23:00 51.46483 -0.48122 88 ft 78 kts 90°
2026-05-07 23:00 51.46481 -0.46948 88 ft 129 kts 90°
2026-05-07 23:01 51.46479 -0.45281 157 ft 163 kts 90°
2026-05-07 23:01 51.46494 -0.43469 770 ft 164 kts 90°
2026-05-07 23:01 51.46508 -0.41627 1395 ft 170 kts 93°
2026-05-07 23:01 51.46256 -0.39694 1716 ft 187 kts 117°
2026-05-07 23:02 51.45525 -0.37848 1994 ft 210 kts 126°
2026-05-07 23:02 51.44611 -0.35845 2383 ft 235 kts 126°
2026-05-07 23:02 51.43770 -0.33498 3013 ft 249 kts 111°
2026-05-07 23:02 51.43198 -0.30820 3929 ft 252 kts 107°
2026-05-07 23:03 51.42735 -0.28124 4827 ft 256 kts 104°
2026-05-07 23:03 51.42315 -0.25309 5677 ft 262 kts 103°
2026-05-07 23:03 51.41920 -0.22429 6495 ft 268 kts 102°
2026-05-07 23:03 51.41528 -0.19473 7240 ft 275 kts 102°
2026-05-07 23:04 51.41127 -0.16441 7996 ft 281 kts 103°
2026-05-07 23:04 51.40713 -0.13343 8750 ft 287 kts 103°
2026-05-07 23:04 51.40286 -0.10193 9501 ft 294 kts 103°
2026-05-07 23:04 51.39843 -0.06956 10216 ft 300 kts 103°
2026-05-07 23:05 51.39379 -0.03588 10524 ft 321 kts 104°
2026-05-07 23:05 51.38875 0.00031 10703 ft 345 kts 103°
2026-05-07 23:05 51.38332 0.03901 10826 ft 367 kts 103°
2026-05-07 23:05 51.37757 0.07993 10944 ft 387 kts 103°
2026-05-07 23:06 51.37156 0.12273 11230 ft 399 kts 103°
2026-05-07 23:06 51.36541 0.16645 11796 ft 404 kts 103°
2026-05-07 23:06 51.35924 0.21030 12379 ft 407 kts 104°
2026-05-07 23:06 51.35298 0.25466 12985 ft 409 kts 104°
2026-05-07 23:07 51.34668 0.29925 13586 ft 412 kts 104°
2026-05-07 23:07 51.34033 0.34412 14161 ft 415 kts 104°
2026-05-07 23:07 51.33399 0.38881 14675 ft 418 kts 104°
2026-05-07 23:07 51.32750 0.43441 14970 ft 422 kts 104°
2026-05-07 23:08 51.32093 0.48028 15446 ft 425 kts 104°
2026-05-07 23:08 51.31427 0.52637 15956 ft 428 kts 104°
2026-05-07 23:08 51.30748 0.57306 16462 ft 431 kts 104°
2026-05-07 23:08 51.30047 0.61973 16955 ft 434 kts 106°
2026-05-07 23:09 51.29260 0.66637 17446 ft 437 kts 107°
2026-05-07 23:09 51.28402 0.71321 17936 ft 440 kts 108°
2026-05-07 23:09 51.27507 0.75997 18404 ft 443 kts 109°
2026-05-07 23:09 51.26595 0.80722 18849 ft 446 kts 109°
2026-05-07 23:10 51.25686 0.85476 19301 ft 448 kts 108°
2026-05-07 23:10 51.24788 0.90252 19751 ft 451 kts 108°
2026-05-07 23:10 51.23896 0.95059 20218 ft 453 kts 108°
2026-05-07 23:10 51.23016 0.99830 20614 ft 456 kts 108°
2026-05-07 23:11 51.22118 1.04688 21011 ft 458 kts 108°
2026-05-07 23:11 51.21215 1.09567 21376 ft 460 kts 108°
2026-05-07 23:11 51.20304 1.14470 21738 ft 462 kts 108°
2026-05-07 23:11 51.19384 1.19403 22085 ft 464 kts 108°
2026-05-07 23:12 51.18456 1.24341 22421 ft 466 kts 108°
2026-05-07 23:12 51.17518 1.29300 22753 ft 468 kts 108°
2026-05-07 23:12 51.16616 1.34281 23215 ft 468 kts 104°
2026-05-07 23:12 51.16088 1.39396 23702 ft 469 kts 96°
2026-05-07 23:13 51.15844 1.44577 24103 ft 468 kts 95°
2026-05-07 23:13 51.15604 1.49741 24508 ft 467 kts 95°
2026-05-07 23:13 51.15360 1.54907 24930 ft 467 kts 95°
2026-05-07 23:13 51.15111 1.60045 25357 ft 466 kts 96°
2026-05-07 23:14 51.14859 1.65192 25795 ft 465 kts 96°
2026-05-07 23:14 51.14605 1.70323 26235 ft 464 kts 96°
2026-05-07 23:14 51.14349 1.75452 26684 ft 464 kts 96°
2026-05-07 23:14 51.14090 1.80566 27140 ft 463 kts 96°
2026-05-07 23:15 51.13827 1.85668 27597 ft 462 kts 96°
2026-05-07 23:15 51.13561 1.90761 28058 ft 461 kts 96°
2026-05-07 23:15 51.13383 1.94128 28353 ft 461 kts 96°
2026-05-07 23:15 51.13114 1.99219 28807 ft 461 kts 96°
2026-05-07 23:16 51.12846 2.04297 29268 ft 460 kts 96°
2026-05-07 23:16 51.12578 2.09378 29739 ft 460 kts 96°
2026-05-07 23:16 51.12223 2.16085 30337 ft 459 kts 96°
2026-05-07 23:16 51.12041 2.19502 30610 ft 458 kts 96°
2026-05-07 23:17 51.11766 2.24551 30981 ft 458 kts 96°
2026-05-07 23:17 51.11488 2.29594 31091 ft 460 kts 96°
2026-05-07 23:17 51.11203 2.34722 31113 ft 469 kts 96°
2026-05-07 23:18 51.10619 2.45207 31106 ft 478 kts 96°
2026-05-07 23:18 51.10027 2.55692 31114 ft 479 kts 96°
2026-05-07 23:19 51.08820 2.66053 31111 ft 476 kts 110°
2026-05-07 23:19 51.06036 2.75543 31104 ft 473 kts 120°
2026-05-07 23:20 51.02968 2.84792 31104 ft 473 kts 120°
2026-05-07 23:20 50.99892 2.94052 31097 ft 473 kts 120°
2026-05-07 23:21 50.96808 3.03300 31090 ft 474 kts 120°
2026-05-07 23:21 50.93709 3.12520 31087 ft 474 kts 120°
2026-05-07 23:22 50.90621 3.21673 31078 ft 474 kts 120°
2026-05-07 23:22 50.87512 3.30888 31072 ft 474 kts 120°
2026-05-07 23:23 50.84393 3.40094 31076 ft 475 kts 120°
2026-05-07 23:23 50.81267 3.49273 31070 ft 474 kts 120°
2026-05-07 23:24 50.78124 3.58458 31082 ft 474 kts 120°
2026-05-07 23:24 50.74977 3.67623 31085 ft 474 kts 120°
2026-05-07 23:25 50.71825 3.76767 31087 ft 474 kts 120°
2026-05-07 23:25 50.68687 3.85850 31082 ft 474 kts 120°
2026-05-07 23:26 50.65520 3.94991 31084 ft 475 kts 121°
2026-05-07 23:26 50.62350 4.04102 31090 ft 475 kts 121°
2026-05-07 23:27 50.57932 4.18084 31095 ft 476 kts 116°
2026-05-07 23:27 50.55236 4.27517 31102 ft 476 kts 116°
2026-05-07 23:28 50.52464 4.36973 31107 ft 476 kts 117°
2026-05-07 23:28 50.49625 4.46345 31109 ft 475 kts 117°
2026-05-07 23:29 50.46753 4.55715 31109 ft 475 kts 117°
2026-05-07 23:29 50.43890 4.65082 31100 ft 475 kts 117°
2026-05-07 23:30 50.41053 4.74378 31100 ft 475 kts 117°
2026-05-07 23:30 50.38193 4.83714 31101 ft 476 kts 117°
2026-05-07 23:31 50.35320 4.93049 31103 ft 476 kts 117°
2026-05-07 23:31 50.32438 5.02386 31099 ft 476 kts 117°
2026-05-07 23:32 50.29545 5.11699 31083 ft 476 kts 118°
2026-05-07 23:32 50.26639 5.21014 31090 ft 476 kts 118°
2026-05-07 23:33 50.23732 5.30304 31095 ft 476 kts 118°
2026-05-07 23:33 50.20840 5.39513 31098 ft 476 kts 118°
2026-05-07 23:34 50.17921 5.48772 31096 ft 476 kts 118°
2026-05-07 23:34 50.14991 5.58033 31092 ft 476 kts 118°
2026-05-07 23:35 50.12051 5.67293 31095 ft 476 kts 118°
2026-05-07 23:35 50.09106 5.76526 31090 ft 476 kts 118°
2026-05-07 23:36 50.06060 5.85692 31088 ft 476 kts 121°
2026-05-07 23:36 50.02748 5.94593 31077 ft 475 kts 123°
2026-05-07 23:37 49.99342 6.03394 31081 ft 475 kts 123°
2026-05-07 23:37 49.96001 6.12193 31080 ft 476 kts 122°
2026-05-07 23:38 49.92686 6.21103 31079 ft 476 kts 122°
2026-05-07 23:38 49.89369 6.29978 31078 ft 476 kts 122°
2026-05-07 23:39 49.86022 6.38846 31070 ft 476 kts 122°
2026-05-07 23:39 49.82653 6.47697 31072 ft 476 kts 122°
2026-05-07 23:40 49.79288 6.56516 31073 ft 476 kts 122°
2026-05-07 23:40 49.75915 6.65347 31069 ft 476 kts 122°
2026-05-07 23:41 49.72554 6.74118 31080 ft 477 kts 122°
2026-05-07 23:41 49.69174 6.82904 31078 ft 477 kts 122°
2026-05-07 23:42 49.65777 6.91724 31074 ft 477 kts 122°
2026-05-07 23:42 49.62373 7.00528 31077 ft 477 kts 122°
2026-05-07 23:43 49.58961 7.09313 31082 ft 477 kts 123°
2026-05-07 23:43 49.55538 7.18084 31085 ft 478 kts 123°
2026-05-07 23:44 49.52114 7.26857 31081 ft 478 kts 122°
2026-05-07 23:44 49.48702 7.35572 31077 ft 478 kts 123°
2026-05-07 23:45 49.45253 7.44318 31078 ft 479 kts 123°
2026-05-07 23:45 49.41799 7.53054 31076 ft 479 kts 123°
2026-05-07 23:46 49.38336 7.61791 31078 ft 479 kts 123°
2026-05-07 23:46 49.34869 7.70530 31081 ft 479 kts 123°
2026-05-07 23:47 49.31399 7.79251 31085 ft 479 kts 123°
2026-05-07 23:47 49.27906 7.87970 31083 ft 479 kts 123°
2026-05-07 23:48 49.24419 7.96648 31068 ft 479 kts 123°
2026-05-07 23:48 49.20919 8.05339 31067 ft 480 kts 123°
2026-05-07 23:49 49.17409 8.14028 31071 ft 480 kts 123°
2026-05-07 23:49 49.13917 8.22644 31071 ft 480 kts 123°
2026-05-07 23:50 49.10396 8.31315 31076 ft 481 kts 123°
2026-05-07 23:50 49.06862 8.39989 31082 ft 481 kts 123°
2026-05-07 23:51 49.03316 8.48636 31080 ft 481 kts 124°
2026-05-07 23:51 48.99750 8.57266 31081 ft 480 kts 126°
2026-05-07 23:52 48.95589 8.65164 31075 ft 478 kts 132°
2026-05-07 23:52 48.90626 8.71741 31075 ft 471 kts 152°
2026-05-07 23:53 48.87682 8.73866 31079 ft 467 kts 163°
2026-05-07 23:53 48.84556 8.75141 31077 ft 462 kts 173°
2026-05-07 23:53 48.78243 8.75152 30861 ft 456 kts 192°
2026-05-07 23:54 48.75108 8.74308 30618 ft 457 kts 193°
2026-05-07 23:54 48.71973 8.73459 30358 ft 457 kts 193°
2026-05-07 23:54 48.68840 8.72612 30011 ft 457 kts 193°
2026-05-07 23:54 48.65694 8.71767 28752 ft 463 kts 192°
2026-05-07 23:55 48.62520 8.70922 27694 ft 464 kts 192°
2026-05-07 23:55 48.59326 8.70080 26529 ft 467 kts 192°
2026-05-07 23:55 48.56106 8.69229 25291 ft 472 kts 192°
2026-05-07 23:55 48.52861 8.68371 24101 ft 475 kts 192°
2026-05-07 23:56 48.49652 8.67521 23104 ft 460 kts 191°
2026-05-07 23:56 48.46542 8.66699 22031 ft 443 kts 192°
2026-05-07 23:56 48.43526 8.65904 21191 ft 438 kts 192°
2026-05-07 23:56 48.40533 8.65114 20305 ft 436 kts 192°
2026-05-07 23:57 48.37559 8.64326 19437 ft 433 kts 192°
2026-05-07 23:57 48.34605 8.63491 18588 ft 430 kts 193°
2026-05-07 23:57 48.31720 8.62621 17668 ft 427 kts 193°
2026-05-07 23:57 48.28834 8.61724 16826 ft 421 kts 193°
2026-05-07 23:58 48.25979 8.60839 15993 ft 417 kts 193°
2026-05-07 23:58 48.23143 8.59967 15176 ft 414 kts 193°
2026-05-07 23:58 48.20328 8.59112 14377 ft 411 kts 193°
2026-05-07 23:58 48.17531 8.58271 13584 ft 408 kts 193°
2026-05-07 23:59 48.14753 8.57440 12832 ft 404 kts 193°
2026-05-07 23:59 48.12022 8.56624 12125 ft 398 kts 193°
2026-05-07 23:59 48.09318 8.55822 11456 ft 392 kts 193°
2026-05-07 23:59 48.06705 8.55055 11277 ft 373 kts 193°
2026-05-08 00:00 48.04221 8.54325 11151 ft 354 kts 193°
2026-05-08 00:00 48.01864 8.53632 11026 ft 338 kts 193°
2026-05-08 00:00 47.99605 8.52964 10902 ft 323 kts 194°
2026-05-08 00:00 47.97471 8.52329 10780 ft 311 kts 194°
2026-05-08 00:01 47.95382 8.51707 10655 ft 300 kts 194°
2026-05-08 00:01 47.93372 8.51108 10528 ft 290 kts 194°
2026-05-08 00:01 47.91409 8.50518 10326 ft 284 kts 194°
2026-05-08 00:01 47.89486 8.49942 10267 ft 282 kts 194°
2026-05-08 00:02 47.87542 8.49360 10192 ft 282 kts 194°
2026-05-08 00:02 47.85643 8.48795 10079 ft 282 kts 194°
2026-05-08 00:02 47.83716 8.48234 9955 ft 281 kts 194°
2026-05-08 00:02 47.81795 8.47673 9800 ft 280 kts 196°
2026-05-08 00:03 47.79950 8.46846 9301 ft 277 kts 200°
2026-05-08 00:03 47.78126 8.45932 8772 ft 272 kts 201°
2026-05-08 00:03 47.76367 8.45025 8375 ft 263 kts 201°
2026-05-08 00:03 47.74652 8.44135 7861 ft 260 kts 200°
2026-05-08 00:04 47.72953 8.43250 7338 ft 258 kts 200°
2026-05-08 00:04 47.71265 8.42374 6822 ft 256 kts 200°
2026-05-08 00:04 47.69584 8.41510 6292 ft 255 kts 199°
2026-05-08 00:04 47.67886 8.40646 5573 ft 260 kts 198°
2026-05-08 00:05 47.66176 8.39777 5145 ft 260 kts 198°
2026-05-08 00:05 47.64481 8.38917 4847 ft 260 kts 197°
2026-05-08 00:05 47.62766 8.38047 4241 ft 261 kts 196°
2026-05-08 00:05 47.61061 8.37529 4052 ft 239 kts 174°
2026-05-08 00:06 47.59579 8.38181 4034 ft 210 kts 146°
2026-05-08 00:06 47.58518 8.39505 4047 ft 193 kts 135°
2026-05-08 00:06 47.57541 8.40833 3917 ft 188 kts 135°
2026-05-08 00:06 47.56599 8.42116 3697 ft 180 kts 135°
2026-05-08 00:07 47.55694 8.43355 3480 ft 175 kts 134°
2026-05-08 00:07 47.54811 8.44565 3226 ft 171 kts 134°
2026-05-08 00:07 47.53961 8.45730 2985 ft 162 kts 134°
2026-05-08 00:07 47.53427 8.46460 2877 ft 152 kts 134°
2026-05-08 00:08 47.52674 8.47491 2659 ft 144 kts 133°
2026-05-08 00:08 47.51947 8.48488 2453 ft 142 kts 133°
2026-05-08 00:08 47.51220 8.49484 2256 ft 143 kts 135°
2026-05-08 00:08 47.50243 8.50822 1989 ft 145 kts 136°
2026-05-08 00:09 47.49742 8.51510 1853 ft 146 kts 136°
2026-05-08 00:09 47.48994 8.52526 1662 ft 146 kts 136°
2026-05-08 00:09 47.48259 8.53538 1466 ft 146 kts 136°
2026-05-08 00:09 47.47553 8.54510 1400 ft 122 kts 136°
2026-05-08 00:10 47.47052 8.55193 1397 ft 73 kts 138°
2026-05-08 00:10 47.46802 8.55522 1403 ft 29 kts 138°
2026-05-08 00:10 47.46656 8.55652 1401 ft 21 kts 165°
2026-05-08 00:10 47.46541 8.55697 1406 ft 15 kts 166°
2026-05-08 00:11 47.46424 8.55737 1398 ft 20 kts 166°
2026-05-08 00:11 47.46312 8.55860 1403 ft 11 kts 137°
2026-05-08 00:11 47.46272 8.55888 1399 ft 12 kts 170°
2026-05-08 00:11 47.46233 8.55793 1399 ft 14 kts 272°
2026-05-08 00:12 47.46246 8.55645 1397 ft 10 kts 276°
2026-05-08 00:12 47.46254 8.55518 1404 ft 15 kts 276°
2026-05-08 00:12 47.46242 8.55446 1399 ft 8 kts 210°
2026-05-08 00:12 47.46190 8.55438 1399 ft 3 kts 187°
2026-05-08 00:13 47.46184 8.55436 1400 ft 0 kts 188°
2026-05-08 00:13 47.46183 8.55436 1401 ft 0 kts 188°